User: anonymous
Location: SAPM � Hemmingford
(45.0500°N, 73.5833°W)
Time: 01:21:41
(UTC-04:00)
Language:

Cosmos 1674 Rocket - Orbit

View from above orbital plane
View from above orbital plane
View from above satellite
View from above satellite

Ground track
Ground track

The orbit data is extracted from the following two-line orbital elements,

1 15945U 85069B   14211.12928896  .00000225  00000-0  24405-4 0  7149
2 15945 082.5265 038.9505 0021016 153.2884 345.9000 14.83370481564886
Epoch (UTC): 30 July 2014 03:06:10
Eccentricity: 0.0021016
inclination: 82.5265°
perigee height: 604 km
apogee height: 633 km
right ascension of ascending node: 38.9505°
argument of perigee: 153.2884°
revolutions per day: 14.83370481
mean anomaly at epoch: 345.9000°
orbit number at epoch: 56488

The dashed part of the orbit path shows where the satellite is in the earth's shadow,  

DLR